, SD

(GMT )
Rapid City

Weather History for KRAP - January, 2014

Change the Weather History Date:

Monday, January 6, 2014

  Actual Average Record
Temperature  
Mean Temperature -1 °F 25 °F  
Max Temperature 14 °F 37 °F 64 °F (1954)
Min Temperature -16 °F 13 °F -21 °F (1982)
Degree Days  
Heating Degree Days 66 40  
Month to date heating degree days 298 242  
Since 1 July heating degree days 3441 3158  
Cooling Degree Days 0 0  
Month to date cooling degree days 0 0  
Year to date cooling degree days 0 0  
Moisture  
Dew Point -10 °F    
Average Humidity 60    
Maximum Humidity 74    
Minimum Humidity 45    
Precipitation  
Precipitation 0.00 in 0.01 in 0.15 in (1999)
Month to date precipitation 0.05 0.07  
Year to date precipitation 0.05 0.07  
Snow  
Snow 0.00 in 0.20 in 1.50 in (2010)
Month to date snowfall 0.4 0.9  
Since 1 July snowfall 33.8 14.1  
Snow Depth 0.00 in    
Sea Level Pressure  
Sea Level Pressure 30.42 in    
Wind  
Wind Speed 5 mph (South)    
Max Wind Speed 18 mph    
Max Gust Speed 23 mph    
Visibility 10 miles    
Events      
T = Trace of Precipitation, MM = Missing Value Source: NWS Daily Summary

Daily Weather History Graph

Daily Weather History Graph

Search for Another Location

Airport or City:

Trip Planner

Search our weather history database for the weather conditions in past years. The results will help you decide how hot, cold, wet, or windy it might be!

Date:

Astronomy

Jan. 06, 2014 Rise Set
Actual Time 7:26 AM MST 4:29 PM MST
Civil Twilight 6:54 AM MST 5:02 PM MST
Nautical Twilight 6:18 AM MST 5:38 PM MST
Astronomical Twilight 5:43 AM MST 6:13 PM MST
Moon 10:29 AM MST (1/6) 11:20 PM MST (1/6)
Length of Visible Light 10h 08m
Length of Day
9h 02m
Waxing Crescent, 35% of the Moon is Illuminated
Jan 6
Waxing Crescent
Jan 7
First Quarter
Jan 15
Full
Jan 23
Last Quarter
Jan 30
New

Hourly Weather History & Observations

Time (MST) Temp. Windchill Dew Point Humidity Pressure Visibility Wind Dir Wind Speed Gust Speed Precip Events Conditions
12:52 AM -14.1 °F - -20.9 °F 71% 30.63 in 10.0 mi Calm Calm - N/A   Clear
1:52 AM -13.0 °F -22.7 °F -20.9 °F 68% 30.63 in 10.0 mi West 3.5 mph - N/A   Clear
2:52 AM -11.9 °F -25.7 °F -20.9 °F 64% 30.63 in 10.0 mi NNW 5.8 mph - N/A   Clear
3:52 AM -6.0 °F -27.7 °F -17.0 °F 59% 30.61 in 10.0 mi NW 16.1 mph - N/A   Clear
4:52 AM -6.0 °F -22.6 °F -17.0 °F 59% 30.61 in 10.0 mi NW 9.2 mph - N/A   Clear
5:52 AM -11.0 °F -22.8 °F -20.0 °F 64% 30.61 in 10.0 mi WNW 4.6 mph - N/A   Clear
6:52 AM -14.1 °F - -20.9 °F 71% 30.61 in 10.0 mi Calm Calm - N/A   Clear
7:52 AM -8.0 °F -16.9 °F -20.0 °F 56% 30.58 in 10.0 mi WSW 3.5 mph - N/A   Clear
8:52 AM -4.0 °F -12.4 °F -17.0 °F 54% 30.60 in 10.0 mi SW 3.5 mph - N/A   Clear
9:52 AM -0.0 °F -7.9 °F -14.1 °F 52% 30.57 in 10.0 mi SSE 3.5 mph - N/A   Clear
10:52 AM 1.9 °F -5.6 °F -13.0 °F 50% 30.53 in 10.0 mi SSE 3.5 mph - N/A   Clear
11:52 AM 5.0 °F -8.1 °F -9.9 °F 50% 30.48 in 10.0 mi South 8.1 mph - N/A   Clear
12:52 PM 7.0 °F -5.7 °F -9.0 °F 48% 30.45 in 10.0 mi South 8.1 mph - N/A   Partly Cloudy
1:52 PM 9.0 °F -0.9 °F -9.0 °F 44% 30.41 in 10.0 mi South 5.8 mph - N/A   Mostly Cloudy
2:52 PM 10.0 °F -3.7 °F -7.1 °F 46% 30.39 in 10.0 mi SSE 10.4 mph - N/A   Partly Cloudy
3:52 PM 10.0 °F -0.9 °F -2.9 °F 56% 30.33 in 10.0 mi SSE 6.9 mph - N/A   Overcast
4:52 PM 10.0 °F -1.9 °F -2.0 °F 58% 30.31 in 10.0 mi SSE 8.1 mph - N/A   Overcast
5:52 PM 10.0 °F 0.4 °F -2.0 °F 58% 30.28 in 10.0 mi SSE 5.8 mph - N/A   Overcast
6:52 PM 10.0 °F -0.9 °F -0.9 °F 61% 30.26 in 10.0 mi SE 6.9 mph - N/A   Mostly Cloudy
7:52 PM 10.9 °F 1.4 °F -0.0 °F 61% 30.19 in 10.0 mi SE 5.8 mph - N/A   Overcast
8:52 PM 10.9 °F 1.4 °F 1.0 °F 64% 30.15 in 10.0 mi SE 5.8 mph - N/A   Overcast
9:52 PM 12.9 °F - 1.9 °F 62% 30.11 in 10.0 mi Calm Calm - N/A   Overcast
10:52 PM 14.0 °F - 3.9 °F 64% 30.09 in 10.0 mi Calm Calm - N/A   Overcast
11:52 PM 12.9 °F 6.9 °F 5.0 °F 71% 30.04 in 10.0 mi WSW 3.5 mph - N/A   Mostly Cloudy